Weather History for KDUJ - November, 2013

Change the Weather History Date:

Saturday, November 30, 2013

  Actual Average Record
Temperature  
Mean Temperature 24 °F 33 °F  
Max Temperature 30 °F 40 °F 64 °F (1991)
Min Temperature 18 °F 27 °F 2 °F (1976)
Degree Days  
Heating Degree Days 41 32  
Month to date heating degree days 858 776  
Since 1 July heating degree days 1418 1517  
Cooling Degree Days 0 0  
Month to date cooling degree days 0 0  
Year to date cooling degree days 543 362  
Moisture  
Dew Point 17 °F    
Average Humidity 74    
Maximum Humidity 84    
Minimum Humidity 63    
Precipitation  
Precipitation 0.00 in 0.12 in 2.30 in (2010)
Month to date precipitation 3.56 3.68  
Sea Level Pressure  
Sea Level Pressure 30.47 in    
Wind  
Wind Speed 9 mph (ESE)    
Max Wind Speed 17 mph    
Max Gust Speed 24 mph    
Visibility 10 miles    
Events      
T = Trace of Precipitation, MM = Missing Value Source: NWS Daily Summary

Daily Weather History Graph

Daily Weather History Graph

Search for Another Location

Airport or City:

Trip Planner

Search our weather history database for the weather conditions in past years. The results will help you decide how hot, cold, wet, or windy it might be!

Date:

Astronomy

Nov. 30, 2013 Rise Set
Actual Time 7:20 AM EST 4:47 PM EST
Civil Twilight 6:50 AM EST 5:18 PM EST
Nautical Twilight 6:15 AM EST 5:52 PM EST
Astronomical Twilight 5:42 AM EST 6:25 PM EST
Moon 4:28 AM EST (11/30) 3:11 PM EST (11/30)
Length of Visible Light 10h 28m
Length of Day
9h 26m
Waning Crescent, 7% of the Moon is Illuminated
Nov 30
Waning Crescent
Dec 2
New
Dec 9
First Quarter
Dec 17
Full
Dec 25
Last Quarter

Hourly Weather History & Observations

Time (EST) Temp. Windchill Dew Point Humidity Pressure Visibility Wind Dir Wind Speed Gust Speed Precip Events Conditions
12:56 AM 19.9 °F 9.3 °F 16.0 °F 85% 30.65 in 10.0 mi East 9.2 mph - N/A   Clear
1:56 AM 19.9 °F 10.1 °F 15.1 °F 81% 30.65 in 10.0 mi East 8.1 mph - N/A   Clear
2:56 AM 19.9 °F 9.3 °F 14.0 °F 78% 30.64 in 10.0 mi ESE 9.2 mph - N/A   Clear
3:56 AM 19.0 °F 8.2 °F 12.9 °F 77% 30.63 in 10.0 mi ESE 9.2 mph - N/A   Clear
4:56 AM 18.0 °F 9.8 °F 12.9 °F 81% 30.62 in 10.0 mi ESE 5.8 mph - N/A   Clear
5:56 AM 18.0 °F 8.7 °F 12.9 °F 81% 30.61 in 10.0 mi ESE 6.9 mph - N/A   Clear
6:56 AM 18.0 °F 7.7 °F 12.0 °F 78% 30.59 in 10.0 mi ESE 8.1 mph - N/A   Clear
7:56 AM 19.0 °F 7.5 °F 12.0 °F 74% 30.59 in 10.0 mi ESE 10.4 mph - N/A   Clear
8:56 AM 21.0 °F 9.9 °F 14.0 °F 74% 30.57 in 10.0 mi ESE 10.4 mph 18.4 mph N/A   Clear
9:56 AM 23.0 °F 11.1 °F 15.1 °F 72% 30.56 in 10.0 mi SE 12.7 mph 19.6 mph N/A   Clear
10:56 AM 25.0 °F 13.6 °F 17.1 °F 72% 30.53 in 10.0 mi SE 12.7 mph - N/A   Clear
11:56 AM 28.0 °F 18.6 °F 18.0 °F 66% 30.50 in 10.0 mi SE 10.4 mph 16.1 mph N/A   Clear
12:56 PM 28.0 °F 18.6 °F 19.0 °F 69% 30.46 in 10.0 mi SE 10.4 mph 17.3 mph N/A   Mostly Cloudy
1:56 PM 28.9 °F 20.4 °F 19.9 °F 69% 30.43 in 10.0 mi SE 9.2 mph - N/A   Partly Cloudy
2:56 PM 28.9 °F 18.2 °F 19.9 °F 69% 30.39 in 10.0 mi SE 13.8 mph 19.6 mph N/A   Overcast
3:56 PM 28.9 °F 19.8 °F 21.0 °F 72% 30.38 in 10.0 mi SE 10.4 mph - N/A   Scattered Clouds
4:56 PM 28.0 °F 18.6 °F 19.9 °F 72% 30.35 in 10.0 mi SE 10.4 mph - N/A   Clear
5:56 PM 27.0 °F 16.7 °F 19.9 °F 75% 30.35 in 10.0 mi SE 11.5 mph - N/A   Clear
6:56 PM 26.1 °F 16.2 °F 19.9 °F 78% 30.33 in 10.0 mi SE 10.4 mph - N/A   Clear
7:56 PM 26.1 °F 16.2 °F 19.9 °F 78% 30.32 in 10.0 mi SE 10.4 mph - N/A   Clear
8:56 PM 26.1 °F 17.6 °F 19.9 °F 78% 30.30 in 10.0 mi SE 8.1 mph - N/A   Clear
9:56 PM 26.1 °F 19.4 °F 19.9 °F 78% 30.30 in 10.0 mi ESE 5.8 mph - N/A   Clear
10:56 PM 25.0 °F 16.3 °F 19.0 °F 78% 30.28 in 10.0 mi ESE 8.1 mph - N/A   Clear
11:56 PM 23.0 °F 17.0 °F 19.0 °F 85% 30.27 in 8.0 mi East 4.6 mph - N/A   Clear